Location: Indian Springs
(36.5700°N, 115.6700°W)
Time: 12:32:44
(UTC-08:00)

Amateur Radio Satellites - All Passes

Search period start: 02 March 2015 12:02
Search period end: 03 March 2015 12:02
Location: Indian Springs, 36.5700°N, 115.6700°W

Satellite Date Start Highest point End Downlink Frequencies (MHz)
Time Altitude Azimuth
BEESAT 02 Mar 12:08:46 12:10:52 13° 90° (E) 12:13:14 436.000
ESTCUBE 1 02 Mar 12:11:33 12:14:37 17° 292° (WNW) 12:17:31 437.505/2401.250
ITAMSAT 1 02 Mar 12:15:51 12:19:43 22° 67° (ENE) 12:23:45 435.822/435.867
Oscar 19 02 Mar 12:16:47 12:21:53 69° 75° (ENE) 12:27:01 437.125/150
SPROUT 02 Mar 12:24:29 12:28:38 47° 286° (WNW) 12:32:43 437.525
TISAT 1 02 Mar 12:29:31 12:33:34 45° 286° (WNW) 12:37:34 437.305
ITUPSAT 1 02 Mar 12:34:29 12:38:24 25° 95° (E) 12:42:24 437.325
HORYU 2 02 Mar 13:23:30 13:26:11 16° 68° (ENE) 13:29:02 437.375
Gurwin Techsat 1B 02 Mar 13:24:30 13:29:47 75° 76° (ENE) 13:35:07 435.225
SWISSCUBE 02 Mar 13:35:43 13:40:30 64° 285° (WNW) 13:45:14 437.505
BEESAT 02 Mar 13:44:26 13:49:09 56° 286° (WNW) 13:53:50 436.000
ITAMSAT 1 02 Mar 13:54:04 13:58:59 41° 262° (W) 14:03:54 435.822/435.867
KKS-1 02 Mar 13:59:27 14:03:34 37° 98° (E) 14:07:41 437.445
Oscar 19 02 Mar 13:59:47 14:01:50 12° 271° (W) 14:03:31 437.125/150
YUBILEINY 02 Mar 14:03:42 14:07:51 15° 80° (E) 14:12:40 435.215
STARS 02 Mar 14:06:34 14:10:19 28° 96° (E) 14:14:07 437.465
ITUPSAT 1 02 Mar 14:12:05 14:16:19 30° 290° (WNW) 14:20:28 437.325
AO-7 02 Mar 14:19:40 14:27:37 52° 67° (ENE) 14:35:38 29.400- 29.500
JAS-2 02 Mar 14:56:07 15:01:13 44° 70° (ENE) 15:06:55 435.910
HORYU 2 02 Mar 14:58:23 15:02:35 41° 262° (W) 15:06:45 437.375
ISS 02 Mar 15:01:30 15:04:35 40° 36° (NE) 15:07:40 145.825
Gurwin Techsat 1B 02 Mar 15:08:35 15:10:27 11° 272° (W) 15:11:55 435.225
MOZHAYETS 4 02 Mar 15:12:55 15:12:59 10° 88° (E) 15:13:24
KKS-1 02 Mar 15:36:56 15:39:58 18° 292° (WNW) 15:42:51 437.445
STARS 02 Mar 15:43:14 15:46:41 22° 291° (WNW) 15:50:02 437.465
Cubesat XI-IV 02 Mar 15:44:01 15:45:34 11° 62° (ENE) 15:47:26 437.490
CUTE-I 02 Mar 15:51:58 15:54:29 14° 64° (ENE) 15:57:17 437.470
YUBILEINY 02 Mar 15:54:53 16:03:37 89° 92° (E) 16:12:28 435.215
VERMONT LUNAR 02 Mar 16:06:09 16:09:04 25° 148° (SSE) 16:12:02 437.305
PHONESAT 2.4 02 Mar 16:10:19 16:12:11 14° 144° (SE) 16:14:09 2401.200-2431.200
AO-7 02 Mar 16:13:23 16:20:43 32° 264° (W) 16:27:52 29.400- 29.500
BEESAT 3 02 Mar 16:19:15 16:23:07 45° 116° (ESE) 16:27:05 437.485
M-CUBED/EXP-1 PRIME 02 Mar 16:21:45 16:26:05 87° 113° (ESE) 16:30:42 437.505
AUBIESAT-1 02 Mar 16:23:49 16:28:09 82° 107° (ESE) 16:32:46 437.475
ISS 02 Mar 16:38:40 16:40:48 16° 230° (SW) 16:42:52 145.825
AIST 2 02 Mar 16:42:09 16:45:34 25° 112° (ESE) 16:49:06 435.215
JAS-2 02 Mar 16:42:38 16:46:46 21° 270° (W) 16:50:58 435.910
BEESAT 2 02 Mar 16:44:26 16:48:32 77° 118° (ESE) 16:52:42 435.950
MOZHAYETS 4 02 Mar 16:46:09 16:50:46 67° 285° (WNW) 16:55:22
CUBESAT XI-V 02 Mar 17:09:28 17:11:56 15° 90° (E) 17:14:38 437.345
Cubesat XI-IV 02 Mar 17:19:38 17:25:00 86° 254° (WSW) 17:30:26 437.490
CUTE-I 02 Mar 17:28:41 17:34:01 72° 257° (WSW) 17:39:25 437.470
O/OREOS (USA 219) 02 Mar 17:40:36 17:42:53 14° 55° (NE) 17:45:22 437.305
AIST 1 02 Mar 17:42:09 17:46:29 53° 80° (E) 17:50:46
VERMONT LUNAR 02 Mar 17:43:18 17:46:48 73° 342° (NNW) 17:50:18 437.305
HO-68 02 Mar 17:44:00 17:45:28 11° 55° (NE) 17:47:25 435.675
PHONESAT 2.4 02 Mar 17:46:38 17:50:16 68° 155° (SSE) 17:53:53 2401.200-2431.200
PRISM 02 Mar 17:53:41 17:57:44 44° 99° (E) 18:01:47 437.425
YUBILEINY 02 Mar 17:56:25 18:01:54 17° 298° (WNW) 18:06:52 435.215
BEESAT 3 02 Mar 17:58:47 18:01:30 16° 313° (NW) 18:04:06 437.485
BRITE-PL 02 Mar 18:01:56 18:04:13 13° 65° (ENE) 18:06:46 437.365/2234.400
AIST 2 02 Mar 18:20:23 18:24:06 28° 308° (NW) 18:27:49 435.215
BEESAT 2 02 Mar 18:25:54 18:27:18 11° 317° (NW) 18:28:32 435.950
DOVE 4 02 Mar 18:41:41 18:43:55 13° 67° (ENE) 18:46:22 437.250
CUBESAT XI-V 02 Mar 18:45:10 18:49:45 49° 286° (WNW) 18:54:14 437.345
STRAND 1 02 Mar 18:50:42 18:55:53 82° 284° (WNW) 19:01:01 437.568
AAUSAT CUBESAT 2 02 Mar 19:10:19 19:12:53 17° 69° (ENE) 19:15:36 437.432
COMPASS 1 02 Mar 19:12:26 19:15:27 20° 70° (ENE) 19:18:35 437.405
O/OREOS (USA 219) 02 Mar 19:18:15 19:22:46 56° 253° (WSW) 19:27:13 437.305
VERMONT LUNAR 02 Mar 19:21:38 19:24:58 41° 359° (N) 19:28:18 437.305
AIST 1 02 Mar 19:22:29 19:23:42 11° 274° (W) 19:24:38
HO-68 02 Mar 19:25:01 19:32:03 66° 72° (ENE) 19:39:09 435.675
PHONESAT 2.4 02 Mar 19:25:18 19:28:50 47° 353° (N) 19:32:22 2401.200-2431.200
PRISM 02 Mar 19:30:35 19:32:53 14° 293° (WNW) 19:35:02 437.425
PCSat 02 Mar 19:31:12 19:36:11 40° 111° (ESE) 19:41:15 145.827
BRITE-PL 02 Mar 19:36:29 19:42:11 82° 258° (WSW) 19:47:42 437.365/2234.400
SEEDS 02 Mar 19:38:45 19:42:48 51° 75° (ENE) 19:46:53 437.485
GOMX 1 02 Mar 19:41:18 19:46:44 78° 77° (ENE) 19:51:56 467.674
CANX-2 02 Mar 19:41:56 19:46:08 77° 76° (ENE) 19:50:21 2200.000
FUNcube-1 02 Mar 19:49:30 19:50:27 11° 67° (ENE) 19:51:40 145.935
ZACube-1 02 Mar 19:50:24 19:51:43 11° 67° (ENE) 19:53:15 437.345
UKube-1 02 Mar 19:57:24 19:59:25 13° 66° (ENE) 20:01:38 .
CUTE 1.7 + AOD 2 02 Mar 20:00:32 20:04:44 70° 259° (W) 20:08:57 437.475
UWE-3 02 Mar 20:07:29 20:10:55 23° 71° (ENE) 20:14:23 435.000/436.395/437.385
GONETS M04 02 Mar 20:10:02 20:16:19 24° 84° (E) 20:22:58
DOVE 4 02 Mar 20:16:05 20:21:16 68° 259° (W) 20:26:14 437.250
DELFI C3 02 Mar 20:16:26 20:20:04 34° 73° (ENE) 20:23:46 145.870
CINEMA 3 02 Mar 20:23:46 20:28:36 80° 77° (ENE) 20:33:15 145.822/145.860
Oscar 11 02 Mar 20:37:02 20:41:20 84° 77° (ENE) 20:45:39 145.826/435.025
CUBEBUG 2 02 Mar 20:44:01 20:48:33 73° 77° (ENE) 20:52:57 437.445
AAUSAT CUBESAT 2 02 Mar 20:44:31 20:48:18 34° 263° (W) 20:52:05 437.432
COMPASS 1 02 Mar 20:47:26 20:51:03 27° 265° (W) 20:54:36 437.405
RS-15 02 Mar 20:52:37 20:58:47 18° 102° (ESE) 21:05:45 29.354- 29.394
VERMONT LUNAR 02 Mar 20:59:41 21:03:09 68° 15° (NNE) 21:06:37 437.305
DX 1 02 Mar 21:01:22 21:05:44 77° 77° (ENE) 21:10:09 434.975-435.025
PHONESAT 2.4 02 Mar 21:04:05 21:07:38 50° 9° (N) 21:11:11 2401.200-2431.200
AISAT 02 Mar 21:05:40 21:09:39 33° 72° (ENE) 21:13:43 437.250
CUBEBUG 1 02 Mar 21:10:26 21:12:52 15° 67° (ENE) 21:15:30 437.445
VELOX 1 02 Mar 21:14:55 21:19:05 40° 73° (ENE) 21:23:19 145.980
PCSat 02 Mar 21:15:12 21:19:45 26° 308° (NW) 21:24:16 145.827
HO-68 02 Mar 21:15:12 21:20:24 20° 269° (W) 21:25:18 435.675
SEEDS 02 Mar 21:17:52 21:19:01 11° 271° (W) 21:19:53 437.485
50 SAT 02 Mar 21:21:28 21:25:14 43° 74° (ENE) 21:29:02 437.505
FUNcube-1 02 Mar 21:22:02 21:26:24 61° 260° (W) 21:30:39 145.935
ZACube-1 02 Mar 21:23:21 21:27:42 58° 260° (W) 21:31:58 437.345
GOMX 1 02 Mar 21:23:35 21:25:25 11° 272° (W) 21:26:48 467.674
HUMSAT D 02 Mar 21:25:32 21:29:44 74° 77° (ENE) 21:33:54 437.325/437.525
UKube-1 02 Mar 21:30:58 21:35:12 50° 260° (W) 21:39:27 .
ESTCUBE 1 02 Mar 21:31:23 21:35:12 28° 71° (ENE) 21:39:07 437.505/2401.250
UWE-3 02 Mar 21:43:29 21:47:21 28° 264° (W) 21:51:07 435.000/436.395/437.385
UNISAT 6 02 Mar 21:45:20 21:49:05 29° 96° (E) 21:52:56 437.425
DELFI C3 02 Mar 21:53:01 21:55:27 15° 268° (W) 21:57:43 145.870
QB50P1 02 Mar 22:03:22 22:06:50 25° 95° (E) 22:10:21 145.935-145.965
GONETS M04 02 Mar 22:03:56 22:12:33 64° 280° (W) 22:21:10
QB50P2 02 Mar 22:07:08 22:10:46 28° 96° (E) 22:14:26 145.880/145.840
TIGRISAT 02 Mar 22:10:00 22:14:13 56° 100° (E) 22:18:30 435.000
BUGSAT 1 02 Mar 22:13:04 22:16:20 23° 95° (E) 22:19:38 437.445
DUCHIFAT 1 02 Mar 22:21:49 22:25:47 40° 98° (E) 22:29:46 145.980
ANTELSAT 02 Mar 22:23:38 22:27:57 86° 102° (ESE) 22:32:19 437.575/2403.000
VERMONT LUNAR 02 Mar 22:37:54 22:40:55 28° 211° (SSW) 22:43:55 437.305
POLYITAN 1 02 Mar 22:42:05 22:46:19 76° 102° (ESE) 22:50:31 437.675
POPSAT HIP 1 02 Mar 22:42:30 22:46:44 76° 102° (ESE) 22:50:56 437.405
PHONESAT 2.4 02 Mar 22:42:36 22:46:09 53° 206° (SSW) 22:49:40 2401.200-2431.200
AISAT 02 Mar 22:42:58 22:46:22 20° 266° (W) 22:49:38 437.250
DANDE 02 Mar 22:44:06 22:49:52 28° 95° (E) 22:54:40 436.750
CUBEBUG 1 02 Mar 22:44:39 22:48:54 45° 261° (W) 22:53:12 437.445
VELOX 1 02 Mar 22:52:58 22:55:53 16° 268° (W) 22:58:37 145.980
RS-15 02 Mar 22:58:56 23:09:51 89° 117° (ESE) 23:20:55 29.354- 29.394
50 SAT 02 Mar 22:59:00 23:00:32 12° 269° (W) 23:01:50 437.505
NANOSAT C BR1 02 Mar 23:05:42 23:09:51 56° 285° (WNW) 23:13:57 145.865
SWISSCUBE 02 Mar 23:06:03 23:07:11 11° 64° (ENE) 23:08:36 437.505
ESTCUBE 1 02 Mar 23:08:25 23:12:05 23° 266° (W) 23:15:41 437.505/2401.250
CUSAT 1 02 Mar 23:12:04 23:18:36 60° 98° (E) 23:23:33 437.405
BEESAT 02 Mar 23:13:54 23:15:43 12° 65° (ENE) 23:17:48 436.000
SPROUT 02 Mar 23:15:49 23:20:10 87° 256° (WSW) 23:24:32 437.525
TISAT 1 02 Mar 23:18:58 23:23:16 87° 257° (WSW) 23:27:34 437.305
UNISAT 6 02 Mar 23:22:30 23:25:46 21° 290° (WNW) 23:28:56 437.425
QB50P1 02 Mar 23:39:15 23:42:39 23° 290° (WNW) 23:45:56 145.935-145.965
ITUPSAT 1 02 Mar 23:39:24 23:43:03 23° 69° (ENE) 23:46:51 437.325
QB50P2 02 Mar 23:43:20 23:46:34 21° 290° (WNW) 23:49:40 145.880/145.840
BUGSAT 1 02 Mar 23:48:23 23:51:47 24° 290° (WNW) 23:55:03 437.445
TIGRISAT 02 Mar 23:49:05 23:50:35 11° 293° (WNW) 23:51:51 435.000
DUCHIFAT 1 02 Mar 23:58:53 00:01:21 15° 292° (WNW) 00:03:38 145.980
PHONESAT 2.4 03 Mar 00:23:45 00:24:08 10° 218° (SW) 00:24:23 2401.200-2431.200
DANDE 03 Mar 00:26:40 00:33:11 38° 281° (WNW) 00:38:12 436.750
Oscar 19 03 Mar 00:31:19 00:35:42 29° 96° (E) 00:40:10 437.125/150
SWISSCUBE 03 Mar 00:39:44 00:44:30 74° 258° (WSW) 00:49:19 437.505
BEESAT 3 03 Mar 00:41:42 00:44:08 15° 46° (NE) 00:46:42 437.485
BEESAT 03 Mar 00:48:22 00:53:06 65° 259° (W) 00:57:52 436.000
KKS-1 03 Mar 00:55:39 00:59:20 26° 70° (ENE) 01:03:06 437.445
CUSAT 1 03 Mar 00:57:48 01:01:30 16° 286° (WNW) 01:04:27 437.405
STARS 03 Mar 01:01:55 01:05:03 20° 69° (ENE) 01:08:18 437.465
BEESAT 2 03 Mar 01:06:56 01:10:16 23° 50° (NE) 01:13:37 435.950
AIST 2 03 Mar 01:08:08 01:08:49 10° 42° (NE) 01:09:41 435.215
SO-50 03 Mar 01:11:45 01:16:19 76° 301° (WNW) 01:21:04 436.795
RS-15 03 Mar 01:14:53 01:23:56 28° 325° (NW) 01:32:53 29.354- 29.394
ITUPSAT 1 03 Mar 01:16:28 01:20:48 33° 263° (W) 01:25:07 437.325
JUGNU 03 Mar 01:18:13 01:20:14 12° 170° (S) 01:22:21 437.505
Gurwin Techsat 1B 03 Mar 01:43:32 01:48:23 36° 97° (E) 01:53:16 435.225
YUBILEINY 03 Mar 02:08:31 02:16:37 40° 74° (ENE) 02:24:48 435.215
ITAMSAT 1 03 Mar 02:09:02 02:14:19 87° 108° (ESE) 02:19:31 435.822/435.867
Oscar 19 03 Mar 02:10:36 02:15:02 29° 290° (WNW) 02:19:22 437.125/150
BEESAT 3 03 Mar 02:18:34 02:22:33 48° 244° (WSW) 02:26:27 437.485
AO-7 03 Mar 02:25:49 02:30:43 18° 90° (E) 02:36:09 29.400- 29.500
KKS-1 03 Mar 02:32:12 02:35:57 25° 265° (W) 02:39:37 437.445
STARS 03 Mar 02:37:17 02:41:20 33° 263° (W) 02:45:20 437.465
AIST 2 03 Mar 02:43:51 02:48:07 88° 244° (WSW) 02:52:18 435.215
BEESAT 2 03 Mar 02:44:51 02:48:28 29° 247° (WSW) 02:51:59 435.950
HORYU 2 03 Mar 02:51:59 02:56:15 44° 99° (E) 03:00:30 437.375
SO-50 03 Mar 02:56:41 02:57:48 11° 321° (NW) 02:58:43 436.795
JUGNU 03 Mar 03:05:09 03:08:29 15° 179° (S) 03:11:49 437.505
SRMSAT 03 Mar 03:08:24 03:10:56 13° 171° (S) 03:13:32 437.500
M-CUBED/EXP-1 PRIME 03 Mar 03:09:34 03:12:51 76° 73° (ENE) 03:16:15 437.505
AUBIESAT-1 03 Mar 03:11:11 03:14:27 68° 72° (ENE) 03:17:50 437.475
Gurwin Techsat 1B 03 Mar 03:23:52 03:28:13 26° 292° (WNW) 03:32:27 435.225
RS-15 03 Mar 03:36:47 03:41:54 14° 359° (N) 03:47:04 29.354- 29.394
MOZHAYETS 4 03 Mar 03:45:29 03:50:02 85° 77° (ENE) 03:54:39
JAS-2 03 Mar 03:50:45 03:58:12 59° 100° (E) 04:05:57 435.910
ITAMSAT 1 03 Mar 03:51:47 03:53:09 11° 298° (WNW) 03:54:12 435.822/435.867
YUBILEINY 03 Mar 04:05:22 04:13:29 41° 272° (W) 04:21:25 435.215
CUBESAT XI-V 03 Mar 04:12:02 04:13:29 12° 65° (ENE) 04:15:12 437.345
AO-7 03 Mar 04:16:14 04:24:34 83° 288° (WNW) 04:32:51 29.400- 29.500
PCSat 03 Mar 04:21:57 04:25:57 21° 50° (NE) 04:30:05 145.827
STRAND 1 03 Mar 04:28:33 04:30:32 13° 64° (ENE) 04:32:48 437.568
HORYU 2 03 Mar 04:29:53 04:32:35 16° 293° (WNW) 04:35:09 437.375
PRISM 03 Mar 04:42:18 04:45:36 24° 70° (ENE) 04:49:00 437.425
JUGNU 03 Mar 04:54:19 04:56:44 12° 189° (S) 04:59:05 437.505
SRMSAT 03 Mar 04:55:57 04:59:21 15° 181° (S) 05:02:44 437.500
JAS-2 03 Mar 05:36:37 05:42:51 28° 294° (WNW) 05:49:07 435.910
Cubesat XI-IV 03 Mar 05:39:40 05:44:50 47° 99° (E) 05:49:59 437.490
CUBESAT XI-V 03 Mar 05:45:46 05:50:25 68° 259° (W) 05:55:08 437.345
CUTE-I 03 Mar 05:48:25 05:53:41 57° 100° (E) 05:58:56 437.470
RS-15 03 Mar 05:51:13 06:00:06 26° 34° (NE) 06:09:36 29.354- 29.394
STRAND 1 03 Mar 06:04:02 06:09:11 74° 259° (WSW) 06:14:21 437.568
PCSat 03 Mar 06:04:28 06:09:45 53° 248° (WSW) 06:14:59 145.827
AIST 1 03 Mar 06:09:14 06:13:10 35° 92° (E) 06:17:11
AO-7 03 Mar 06:11:15 06:16:19 17° 305° (NW) 06:20:58 29.400- 29.500
PRISM 03 Mar 06:17:41 06:21:04 23° 265° (W) 06:24:23 437.425
SRMSAT 03 Mar 06:45:43 06:47:45 12° 191° (S) 06:49:43 437.500
HO-68 03 Mar 06:58:40 07:01:09 12° 87° (E) 07:04:13 435.675
Cubesat XI-IV 03 Mar 07:20:41 07:24:37 20° 294° (WNW) 07:28:23 437.490
SEEDS 03 Mar 07:28:36 07:29:11 10° 89° (E) 07:30:05 437.485
CUTE-I 03 Mar 07:29:52 07:33:21 17° 295° (WNW) 07:36:37 437.470
CANX-2 03 Mar 07:31:05 07:33:37 16° 92° (E) 07:36:21 2200.000
ISS 03 Mar 07:38:57 07:42:03 46° 136° (SE) 07:45:10 145.825
BRITE-PL 03 Mar 07:45:15 07:49:21 35° 96° (E) 07:53:16 437.365/2234.400
GOMX 1 03 Mar 07:47:14 07:50:39 23° 93° (E) 07:54:03 467.674
AIST 1 03 Mar 07:48:09 07:51:01 16° 288° (WNW) 07:53:44
CUTE 1.7 + AOD 2 03 Mar 07:48:55 07:52:17 23° 94° (E) 07:55:46 437.475
O/OREOS (USA 219) 03 Mar 07:49:41 07:53:09 22° 102° (ESE) 07:56:44 437.305
RS-15 03 Mar 08:03:03 08:14:36 83° 59° (ENE) 08:26:41 29.354- 29.394
GONETS M04 03 Mar 08:17:04 08:25:40 58° 79° (ENE) 08:34:19
DOVE 4 03 Mar 08:18:37 08:22:31 36° 97° (E) 08:26:21 437.250
CINEMA 3 03 Mar 08:22:24 08:25:25 20° 93° (E) 08:28:33 145.822/145.860
Oscar 11 03 Mar 08:27:54 08:30:49 18° 93° (E) 08:33:53 145.826/435.025
AAUSAT CUBESAT 2 03 Mar 08:29:52 08:33:51 41° 98° (E) 08:37:51 437.432
COMPASS 1 03 Mar 08:32:53 08:37:00 53° 99° (E) 08:41:07 437.405
CUBEBUG 2 03 Mar 08:38:57 08:41:34 17° 92° (E) 08:44:19 437.445
HO-68 03 Mar 08:42:45 08:49:59 86° 105° (ESE) 08:57:12 435.675
UNISAT 6 03 Mar 08:42:47 08:46:01 21° 70° (ENE) 08:49:18 437.425
DX 1 03 Mar 08:53:41 08:56:14 16° 92° (E) 08:58:59 434.975-435.025
QB50P1 03 Mar 08:55:02 08:57:25 15° 68° (ENE) 08:59:59 145.935-145.965
QB50P2 03 Mar 08:58:46 09:01:29 17° 69° (ENE) 09:04:20 145.880/145.840
SEEDS 03 Mar 09:01:17 09:05:25 55° 285° (WNW) 09:09:33 437.485
BUGSAT 1 03 Mar 09:02:13 09:04:12 13° 67° (ENE) 09:06:24 437.445
CANX-2 03 Mar 09:05:49 09:09:45 36° 287° (WNW) 09:13:39 2200.000
TIGRISAT 03 Mar 09:06:38 09:10:41 37° 73° (ENE) 09:14:42 435.000
DUCHIFAT 1 03 Mar 09:12:32 09:15:53 23° 70° (ENE) 09:19:19 145.980
FUNcube-1 03 Mar 09:13:26 09:16:59 28° 96° (E) 09:20:36 145.935
HUMSAT D 03 Mar 09:13:55 09:16:00 14° 91° (E) 09:18:17 437.325/437.525
ZACube-1 03 Mar 09:14:52 09:18:30 29° 96° (E) 09:22:12 437.345
ISS 03 Mar 09:16:16 09:18:39 19° 332° (NNW) 09:21:01 145.825
ANTELSAT 03 Mar 09:20:20 09:24:39 55° 75° (ENE) 09:28:55 437.575/2403.000
UKube-1 03 Mar 09:21:20 09:25:11 31° 97° (E) 09:29:04 .
BRITE-PL 03 Mar 09:24:38 09:27:37 17° 293° (WNW) 09:30:21 437.365/2234.400
CUTE 1.7 + AOD 2 03 Mar 09:24:39 09:28:12 25° 289° (WNW) 09:31:39 437.475
GOMX 1 03 Mar 09:25:16 09:28:48 24° 290° (WNW) 09:32:08 467.674
O/OREOS (USA 219) 03 Mar 09:28:22 09:32:25 30° 298° (WNW) 09:36:28 437.305
POLYITAN 1 03 Mar 09:32:51 09:36:53 41° 73° (ENE) 09:40:56 437.675
POPSAT HIP 1 03 Mar 09:33:00 09:37:01 40° 73° (ENE) 09:41:04 437.405
DELFI C3 03 Mar 09:33:25 09:37:31 88° 100° (E) 09:41:37 145.870
UWE-3 03 Mar 09:35:15 09:39:24 67° 100° (E) 09:43:33 435.000/436.395/437.385
SO-50 03 Mar 09:45:34 09:50:22 50° 56° (NE) 09:55:09 436.795
CUSAT 1 03 Mar 09:55:27 09:56:57 14° 75° (ENE) 09:58:34 437.405
NANOSAT C BR1 03 Mar 09:55:37 09:59:53 77° 77° (ENE) 10:04:11 145.865
DOVE 4 03 Mar 09:57:26 10:00:03 16° 292° (WNW) 10:02:28 437.250
CINEMA 3 03 Mar 09:59:09 10:02:42 27° 288° (WNW) 10:06:10 145.822/145.860
Oscar 11 03 Mar 10:03:13 10:07:08 33° 288° (WNW) 10:11:00 145.826/435.025
AAUSAT CUBESAT 2 03 Mar 10:06:50 10:09:12 14° 292° (WNW) 10:11:24 437.432
COMPASS 1 03 Mar 10:10:44 10:12:19 12° 293° (WNW) 10:13:40 437.405
CUBEBUG 2 03 Mar 10:14:41 10:18:25 32° 287° (WNW) 10:22:08 437.445
GONETS M04 03 Mar 10:14:57 10:22:01 27° 275° (W) 10:28:48
RS-15 03 Mar 10:17:18 10:26:06 24° 256° (WSW) 10:34:29 29.354- 29.394
UNISAT 6 03 Mar 10:18:44 10:22:41 30° 264° (W) 10:26:30 437.425
DX 1 03 Mar 10:28:38 10:32:43 39° 288° (WNW) 10:36:44 434.975-435.025
QB50P1 03 Mar 10:28:56 10:33:00 41° 262° (W) 10:37:04 145.935-145.965
HO-68 03 Mar 10:32:27 10:36:57 17° 301° (WNW) 10:41:06 435.675
QB50P2 03 Mar 10:33:10 10:37:09 36° 262° (W) 10:41:07 145.880/145.840
AISAT 03 Mar 10:35:03 10:39:32 86° 278° (W) 10:43:57 437.250
BUGSAT 1 03 Mar 10:35:11 10:39:20 48° 261° (W) 10:43:29 437.445
CUBEBUG 1 03 Mar 10:36:11 10:40:17 38° 98° (E) 10:44:23 437.445
50 SAT 03 Mar 10:37:03 10:41:00 77° 283° (WNW) 10:44:58 437.505
VELOX 1 03 Mar 10:44:15 10:48:41 70° 284° (WNW) 10:53:03 145.980
TIGRISAT 03 Mar 10:44:42 10:47:36 17° 267° (W) 10:50:19 435.000
DUCHIFAT 1 03 Mar 10:48:01 10:51:39 26° 265° (W) 10:55:13 145.980
HUMSAT D 03 Mar 10:48:10 10:52:01 38° 287° (WNW) 10:55:50 437.325/437.525
FUNcube-1 03 Mar 10:50:06 10:53:13 20° 290° (WNW) 10:56:13 145.935
ZACube-1 03 Mar 10:51:44 10:54:45 19° 290° (WNW) 10:57:39 437.345
UKube-1 03 Mar 10:57:56 11:01:11 20° 291° (WNW) 11:04:17 .
ANTELSAT 03 Mar 11:00:32 11:01:51 11° 270° (W) 11:02:53 437.575/2403.000
ESTCUBE 1 03 Mar 11:02:34 11:07:10 88° 102° (ESE) 11:11:42 437.505/2401.250
SPROUT 03 Mar 11:06:04 11:09:07 19° 93° (E) 11:12:18 437.525
TISAT 1 03 Mar 11:07:26 11:10:12 17° 93° (E) 11:13:06 437.305
POLYITAN 1 03 Mar 11:10:35 11:13:03 14° 268° (W) 11:15:20 437.675
POPSAT HIP 1 03 Mar 11:10:38 11:13:08 15° 268° (W) 11:15:28 437.405
DANDE 03 Mar 11:12:22 11:14:44 30° 265° (W) 11:17:08 436.750
SO-50 03 Mar 11:27:14 11:30:36 18° 250° (WSW) 11:33:46 436.795
Oscar 19 03 Mar 11:45:49 11:50:22 33° 70° (ENE) 11:54:58 437.125/150
ITAMSAT 1 03 Mar 11:49:09 11:50:50 12° 63° (ENE) 11:52:48 435.822/435.867
